"Sample Date","Sample Time","Sample Value","Units","Flow Rate","Laser Status","Micron Size 0","Counts/Channel 0","Micron Size 1","Counts/Channel 1","Micron Size 2","Counts/Channel 2","Micron Size 3","Counts/Channel 3","Micron Size 4","Counts/Channel 4","Micron Size 5","Counts/Channel 5","Micron Size 6","Counts/Channel 6","Micron Size 7","Counts/Channel 7","Micron Size 8","Counts/Channel 8","Micron Size 9","Counts/Channel 9","Micron Size 10","Counts/Channel 10","Micron Size 11","Counts/Channel 11","Micron Size 12","Counts/Channel 12","Micron Size 13","Counts/Channel 13","Micron Size 14","Counts/Channel 14","Micron Size 15","Counts/Channel 15","Micron Size 16","Counts/Channel 16","Micron Size 17","Counts/Channel 17","Micron Size 18","Counts/Channel 18","Micron Size 19","Counts/Channel 19","Micron Size 20","Counts/Channel 20","Micron Size 21","Counts/Channel 21","Micron Size 22","Counts/Channel 22","Micron Size 23","Counts/Channel 23","Micron Size 24","Counts/Channel 24","Micron Size 25","Counts/Channel 25","Micron Size 26","Counts/Channel 26","Micron Size 27","Counts/Channel 27","Micron Size 28","Counts/Channel 28","Micron Size 29","Counts/Channel 29","Micron Size 30","Counts/Channel 30","Micron Size 31","Counts/Channel 31"
"03/02/08","13:00:04",23873.000,"cc",28365.693,1,0.100,21465.000,0.200,1162.000,0.300,502.000,0.500,544.000,1.000,200.000,5.000,0
"03/02/08","13:00:10",24182.000,"cc",28298.514,1,0.100,21792.000,0.200,1215.000,0.300,497.000,0.500,512.000,1.000,166.000,5.000,0
"03/02/08","13:00:16",24246.000,"cc",28310.176,1,0.100,21700.000,0.200,1268.000,0.300,529.000,0.500,528.000,1.000,221.000,5.000,0
"03/02/08","13:00:22",23923.000,"cc",28374.674,1,0.100,21527.000,0.200,1170.000,0.300,531.000,0.500,492.000,1.000,203.000,5.000,0
"03/02/08","13:00:28",23938.000,"cc",28326.445,1,0.100,21507.000,0.200,1176.000,0.300,528.000,0.500,513.000,1.000,214.000,5.000,0
"03/02/08","13:00:34",24083.000,"cc",28313.084,1,0.100,21615.000,0.200,1205.000,0.300,520.000,0.500,518.000,1.000,225.000,5.000,0
"03/02/08","13:00:40",24151.000,"cc",28256.678,1,0.100,21731.000,0.200,1197.000,0.300,514.000,0.500,526.000,1.000,183.000,5.000,0
"03/02/08","13:00:46",24380.000,"cc",28305.918,1,0.100,21953.000,0.200,1213.000,0.300,467.000,0.500,523.000,1.000,224.000,5.000,0
"03/02/08","13:00:52",24180.000,"cc",28306.527,1,0.100,21811.000,0.200,1185.000,0.300,492.000,0.500,503.000,1.000,189.000,5.000,0
"03/02/08","13:00:58",24289.000,"cc",28335.811,1,0.100,21804.000,0.200,1188.000,0.300,528.000,0.500,534.000,1.000,235.000,5.000,0
"03/02/08","13:01:04",24173.000,"cc",28355.350,1,0.100,21682.000,0.200,1232.000,0.300,532.000,0.500,500.000,1.000,227.000,5.000,0
"03/02/08","13:01:10",24020.000,"cc",28271.234,1,0.100,21668.000,0.200,1157.000,0.300,502.000,0.500,515.000,1.000,178.000,5.000,0
"03/02/08","13:01:16",23867.000,"cc",28344.205,1,0.100,21421.000,0.200,1202.000,0.300,508.000,0.500,515.000,1.000,221.000,5.000,0
"03/02/08","13:01:22",24153.000,"cc",28279.818,1,0.100,21681.000,0.200,1175.000,0.300,512.000,0.500,579.000,1.000,206.000,5.000,0
"03/02/08","13:01:28",24049.000,"cc",28293.438,1,0.100,21646.000,0.200,1158.000,0.300,478.000,0.500,539.000,1.000,228.000,5.000,0
"03/02/08","13:01:34",24680.000,"cc",28349.262,1,0.100,22170.000,0.200,1248.000,0.300,532.000,0.500,554.000,1.000,176.000,5.000,0
"03/02/08","13:01:40",24221.000,"cc",28299.803,1,0.100,21811.000,0.200,1205.000,0.300,492.000,0.500,508.000,1.000,205.000,5.000,0
"03/02/08","13:01:46",24273.000,"cc",28316.445,1,0.100,21848.000,0.200,1214.000,0.300,505.000,0.500,527.000,1.000,179.000,5.000,0
"03/02/08","13:01:52",23990.000,"cc",28327.930,1,0.100,21600.000,0.200,1156.000,0.300,480.000,0.500,534.000,1.000,220.000,5.000,0
"03/02/08","13:01:58",24382.000,"cc",28300.947,1,0.100,21999.000,0.200,1223.000,0.300,487.000,0.500,513.000,1.000,160.000,5.000,0
"03/02/08","13:02:04",24224.000,"cc",28314.252,1,0.100,21784.000,0.200,1168.000,0.300,519.000,0.500,540.000,1.000,213.000,5.000,0
"03/02/08","13:02:10",24158.000,"cc",28347.656,1,0.100,21816.000,0.200,1143.000,0.300,464.000,0.500,525.000,1.000,210.000,5.000,0
"03/02/08","13:02:16",24338.000,"cc",28322.615,1,0.100,21900.000,0.200,1162.000,0.300,551.000,0.500,524.000,1.000,201.000,5.000,0
"03/02/08","13:02:22",24470.000,"cc",28401.582,1,0.100,22003.000,0.200,1190.000,0.300,521.000,0.500,525.000,1.000,231.000,5.000,0
"03/02/08","13:02:28",24238.000,"cc",28274.326,1,0.100,21788.000,0.200,1225.000,0.300,462.000,0.500,559.000,1.000,204.000,5.000,0
"03/02/08","13:02:34",24191.000,"cc",28293.275,1,0.100,21813.000,0.200,1242.000,0.300,474.000,0.500,460.000,1.000,202.000,5.000,0
"03/02/08","13:02:40",24235.000,"cc",28240.465,1,0.100,21836.000,0.200,1163.000,0.300,493.000,0.500,547.000,1.000,196.000,5.000,0
"03/02/08","13:02:46",24061.000,"cc",28391.166,1,0.100,21590.000,0.200,1190.000,0.300,545.000,0.500,524.000,1.000,212.000,5.000,0
"03/02/08","13:02:52",24106.000,"cc",28345.543,1,0.100,21623.000,0.200,1232.000,0.300,525.000,0.500,506.000,1.000,220.000,5.000,0
"03/02/08","13:02:58",24523.000,"cc",28286.781,1,0.100,22009.000,0.200,1254.000,0.300,527.000,0.500,524.000,1.000,209.000,5.000,0
"03/02/08","13:03:04",24404.000,"cc",28319.033,1,0.100,22010.000,0.200,1190.000,0.300,503.000,0.500,485.000,1.000,216.000,5.000,0
"03/02/08","13:03:10",24118.000,"cc",28309.674,1,0.100,21794.000,0.200,1190.000,0.300,464.000,0.500,467.000,1.000,203.000,5.000,0
"03/02/08","13:03:16",24103.000,"cc",28307.227,1,0.100,21610.000,0.200,1230.000,0.300,505.000,0.500,537.000,1.000,221.000,5.000,0
"03/02/08","13:03:22",24271.000,"cc",28307.352,1,0.100,21844.000,0.200,1201.000,0.300,486.000,0.500,551.000,1.000,189.000,5.000,0
"03/02/08","13:03:28",24258.000,"cc",28403.652,1,0.100,21805.000,0.200,1207.000,0.300,502.000,0.500,536.000,1.000,208.000,5.000,0
"03/02/08","13:03:34",23998.000,"cc",28302.582,1,0.100,21610.000,0.200,1132.000,0.300,497.000,0.500,545.000,1.000,214.000,5.000,0
"03/02/08","13:03:40",24196.000,"cc",28254.293,1,0.100,21742.000,0.200,1195.000,0.300,482.000,0.500,587.000,1.000,190.000,5.000,0
"03/02/08","13:03:46",24075.000,"cc",28294.287,1,0.100,21666.000,0.200,1184.000,0.300,498.000,0.500,517.000,1.000,210.000,5.000,0
"03/02/08","13:03:52",23955.000,"cc",28316.938,1,0.100,21569.000,0.200,1190.000,0.300,502.000,0.500,525.000,1.000,169.000,5.000,0
"03/02/08","13:03:58",23706.000,"cc",28371.846,1,0.100,21393.000,0.200,1122.000,0.300,495.000,0.500,515.000,1.000,181.000,5.000,0
"03/02/08","13:04:04",23957.000,"cc",28296.719,1,0.100,21548.000,0.200,1154.000,0.300,523.000,0.500,503.000,1.000,229.000,5.000,0
"03/02/08","13:04:10",23918.000,"cc",28283.051,1,0.100,21496.000,0.200,1250.000,0.300,437.000,0.500,517.000,1.000,218.000,5.000,0
"03/02/08","13:04:16",24412.000,"cc",28329.307,1,0.100,22013.000,0.200,1235.000,0.300,483.000,0.500,497.000,1.000,184.000,5.000,0
"03/02/08","13:04:22",24250.000,"cc",28364.693,1,0.100,21787.000,0.200,1149.000,0.300,537.000,0.500,554.000,1.000,223.000,5.000,0
"03/02/08","13:04:28",24166.000,"cc",28308.033,1,0.100,21795.000,0.200,1167.000,0.300,485.000,0.500,512.000,1.000,207.000,5.000,0
"03/02/08","13:04:34",24382.000,"cc",28335.828,1,0.100,21930.000,0.200,1200.000,0.300,476.000,0.500,576.000,1.000,200.000,5.000,0
"03/02/08","13:04:40",24369.000,"cc",28321.549,1,0.100,22003.000,0.200,1168.000,0.300,508.000,0.500,509.000,1.000,181.000,5.000,0
"03/02/08","13:04:46",24199.000,"cc",28308.016,1,0.100,21734.000,0.200,1233.000,0.300,488.000,0.500,533.000,1.000,211.000,5.000,0
"03/02/08","13:04:52",23792.000,"cc",28329.529,1,0.100,21437.000,0.200,1149.000,0.300,475.000,0.500,519.000,1.000,212.000,5.000,0
"03/02/08","13:04:58",24240.000,"cc",28324.356,1,0.100,21824.000,0.200,1227.000,0.300,444.000,0.500,535.000,1.000,210.000,5.000,0
"03/02/08","13:05:04",24141.000,"cc",28344.174,1,0.100,21650.000,0.200,1267.000,0.300,516.000,0.500,493.000,1.000,215.000,5.000,0
"03/02/08","13:05:10",24031.000,"cc",28330.272,1,0.100,21677.000,0.200,1154.000,0.300,479.000,0.500,524.000,1.000,197.000,5.000,0
"03/02/08","13:05:16",24328.000,"cc",28244.762,1,0.100,21986.000,0.200,1167.000,0.300,519.000,0.500,480.000,1.000,176.000,5.000,0
"03/02/08","13:05:22",23980.000,"cc",28358.168,1,0.100,21732.000,0.200,1096.000,0.300,477.000,0.500,496.000,1.000,179.000,5.000,0
"03/02/08","13:05:28",24014.000,"cc",28366.012,1,0.100,21667.000,0.200,1150.000,0.300,495.000,0.500,510.000,1.000,192.000,5.000,0
"03/02/08","13:05:34",24520.000,"cc",28254.287,1,0.100,22158.000,0.200,1177.000,0.300,506.000,0.500,500.000,1.000,179.000,5.000,0
"03/02/08","13:05:40",24317.000,"cc",28306.039,1,0.100,21923.000,0.200,1183.000,0.300,496.000,0.500,529.000,1.000,186.000,5.000,0
"03/02/08","13:05:46",23882.000,"cc",28365.486,1,0.100,21473.000,0.200,1164.000,0.300,498.000,0.500,521.000,1.000,226.000,5.000,0
"03/02/08","13:05:52",24178.000,"cc",28308.865,1,0.100,21773.000,0.200,1147.000,0.300,514.000,0.500,542.000,1.000,202.000,5.000,0
"03/02/08","13:05:58",24202.000,"cc",28324.604,1,0.100,21850.000,0.200,1159.000,0.300,504.000,0.500,482.000,1.000,207.000,5.000,0
"03/02/08","13:06:04",24087.000,"cc",28274.854,1,0.100,21781.000,0.200,1133.000,0.300,460.000,0.500,495.000,1.000,218.000,5.000,0
"03/02/08","13:06:10",24331.000,"cc",28317.379,1,0.100,21946.000,0.200,1192.000,0.300,491.000,0.500,511.000,1.000,191.000,5.000,0
"03/02/08","13:06:16",24187.000,"cc",28298.682,1,0.100,21815.000,0.200,1158.000,0.300,509.000,0.500,510.000,1.000,195.000,5.000,0
"03/02/08","13:06:22",23973.000,"cc",28341.256,1,0.100,21628.000,0.200,1148.000,0.300,489.000,0.500,512.000,1.000,196.000,5.000,0
"03/02/08","13:06:28",24317.000,"cc",28331.119,1,0.100,21910.000,0.200,1192.000,0.300,499.000,0.500,522.000,1.000,194.000,5.000,0
"03/02/08","13:06:34",24294.000,"cc",28276.385,1,0.100,21932.000,0.200,1184.000,0.300,480.000,0.500,501.000,1.000,197.000,5.000,0
"03/02/08","13:06:40",24264.000,"cc",28294.721,1,0.100,21893.000,0.200,1193.000,0.300,481.000,0.500,511.000,1.000,186.000,5.000,0
"03/02/08","13:06:46",24218.000,"cc",28309.502,1,0.100,21807.000,0.200,1225.000,0.300,488.000,0.500,479.000,1.000,219.000,5.000,0
"03/02/08","13:06:52",24249.000,"cc",28387.430,1,0.100,21828.000,0.200,1208.000,0.300,482.000,0.500,535.000,1.000,196.000,5.000,0
"03/02/08","13:06:58",24339.000,"cc",28305.492,1,0.100,21871.000,0.200,1233.000,0.300,518.000,0.500,525.000,1.000,192.000,5.000,0
"03/02/08","13:07:04",24278.000,"cc",28293.231,1,0.100,21873.000,0.200,1208.000,0.300,483.000,0.500,525.000,1.000,189.000,5.000,0
"03/02/08","13:07:10",24258.000,"cc",28256.547,1,0.100,21828.000,0.200,1214.000,0.300,485.000,0.500,505.000,1.000,226.000,5.000,0
"03/02/08","13:07:16",24324.000,"cc",28341.361,1,0.100,21897.000,0.200,1185.000,0.300,504.000,0.500,539.000,1.000,199.000,5.000,0
"03/02/08","13:07:22",24317.000,"cc",28354.316,1,0.100,21925.000,0.200,1147.000,0.300,493.000,0.500,525.000,1.000,227.000,5.000,0
"03/02/08","13:07:28",24236.000,"cc",28243.652,1,0.100,21868.000,0.200,1126.000,0.300,521.000,0.500,529.000,1.000,192.000,5.000,0
"03/02/08","13:07:34",24196.000,"cc",28356.313,1,0.100,21803.000,0.200,1221.000,0.300,473.000,0.500,494.000,1.000,205.000,5.000,0
"03/02/08","13:07:40",24341.000,"cc",28313.813,1,0.100,21975.000,0.200,1242.000,0.300,445.000,0.500,478.000,1.000,201.000,5.000,0
"03/02/08","13:07:46",24302.000,"cc",28312.098,1,0.100,21934.000,0.200,1152.000,0.300,503.000,0.500,502.000,1.000,211.000,5.000,0
"03/02/08","13:07:52",24597.000,"cc",28289.078,1,0.100,22134.000,0.200,1172.000,0.300,519.000,0.500,549.000,1.000,223.000,5.000,0
"03/02/08","13:07:58",24360.000,"cc",28323.148,1,0.100,22017.000,0.200,1173.000,0.300,494.000,0.500,492.000,1.000,184.000,5.000,0
"03/02/08","13:08:04",24164.000,"cc",28344.000,1,0.100,21774.000,0.200,1193.000,0.300,492.000,0.500,515.000,1.000,190.000,5.000,0
"03/02/08","13:08:10",24493.000,"cc",28308.262,1,0.100,22134.000,0.200,1159.000,0.300,465.000,0.500,495.000,1.000,240.000,5.000,0
"03/02/08","13:08:16",24005.000,"cc",28305.893,1,0.100,21590.000,0.200,1222.000,0.300,498.000,0.500,485.000,1.000,210.000,5.000,0
"03/02/08","13:08:22",23903.000,"cc",28374.691,1,0.100,21466.000,0.200,1171.000,0.300,498.000,0.500,533.000,1.000,235.000,5.000,0
"03/02/08","13:08:28",24133.000,"cc",28332.857,1,0.100,21706.000,0.200,1210.000,0.300,500.000,0.500,518.000,1.000,199.000,5.000,0
"03/02/08","13:08:34",24181.000,"cc",28322.606,1,0.100,21793.000,0.200,1193.000,0.300,487.000,0.500,508.000,1.000,200.000,5.000,0
"03/02/08","13:08:40",24308.000,"cc",28248.998,1,0.100,21872.000,0.200,1190.000,0.300,516.000,0.500,498.000,1.000,232.000,5.000,0
"03/02/08","13:08:46",24021.000,"cc",28294.539,1,0.100,21708.000,0.200,1105.000,0.300,493.000,0.500,510.000,1.000,205.000,5.000,0
"03/02/08","13:08:52",24065.000,"cc",28308.268,1,0.100,21700.000,0.200,1184.000,0.300,466.000,0.500,519.000,1.000,196.000,5.000,0
"03/02/08","13:08:58",24156.000,"cc",28357.125,1,0.100,21840.000,0.200,1168.000,0.300,467.000,0.500,485.000,1.000,196.000,5.000,0
"03/02/08","13:09:04",24665.000,"cc",28329.873,1,0.100,22191.000,0.200,1199.000,0.300,528.000,0.500,523.000,1.000,224.000,5.000,0
"03/02/08","13:09:10",24131.000,"cc",28334.930,1,0.100,21771.000,0.200,1147.000,0.300,506.000,0.500,521.000,1.000,186.000,5.000,0
"03/02/08","13:09:16",24375.000,"cc",28332.270,1,0.100,22048.000,0.200,1171.000,0.300,501.000,0.500,452.000,1.000,203.000,5.000,0
"03/02/08","13:09:22",24627.000,"cc",28270.928,1,0.100,22284.000,0.200,1233.000,0.300,456.000,0.500,467.000,1.000,187.000,5.000,0
"03/02/08","13:09:28",24498.000,"cc",28309.078,1,0.100,22109.000,0.200,1157.000,0.300,526.000,0.500,505.000,1.000,201.000,5.000,0
"03/02/08","13:09:34",24398.000,"cc",28314.703,1,0.100,21979.000,0.200,1199.000,0.300,510.000,0.500,514.000,1.000,196.000,5.000,0
"03/02/08","13:09:40",24538.000,"cc",28312.322,1,0.100,22167.000,0.200,1143.000,0.300,525.000,0.500,520.000,1.000,183.000,5.000,0
"03/02/08","13:09:46",24363.000,"cc",28354.539,1,0.100,22006.000,0.200,1148.000,0.300,482.000,0.500,545.000,1.000,182.000,5.000,0
"03/02/08","13:09:52",24371.000,"cc",28347.758,1,0.100,21944.000,0.200,1188.000,0.300,518.000,0.500,503.000,1.000,218.000,5.000,0
"03/02/08","13:09:58",24425.000,"cc",28259.981,1,0.100,22005.000,0.200,1174.000,0.300,506.000,0.500,528.000,1.000,212.000,5.000,0
"03/02/08","13:10:04",24415.000,"cc",28367.764,1,0.100,21938.000,0.200,1221.000,0.300,467.000,0.500,564.000,1.000,225.000,5.000,0
"03/02/08","13:10:10",24375.000,"cc",28291.104,1,0.100,22047.000,0.200,1149.000,0.300,491.000,0.500,505.000,1.000,183.000,5.000,0
"03/02/08","13:10:16",24302.000,"cc",28279.854,1,0.100,21937.000,0.200,1134.000,0.300,477.000,0.500,552.000,1.000,202.000,5.000,0
"03/02/08","13:10:22",24488.000,"cc",28342.272,1,0.100,22078.000,0.200,1209.000,0.300,505.000,0.500,478.000,1.000,218.000,5.000,0
"03/02/08","13:10:28",24451.000,"cc",28339.305,1,0.100,22049.000,0.200,1191.000,0.300,484.000,0.500,514.000,1.000,213.000,5.000,0
"03/02/08","13:10:34",24530.000,"cc",28352.191,1,0.100,22104.000,0.200,1192.000,0.300,479.000,0.500,524.000,1.000,231.000,5.000,0
"03/02/08","13:10:40",24101.000,"cc",28270.330,1,0.100,21682.000,0.200,1191.000,0.300,444.000,0.500,564.000,1.000,220.000,5.000,0
"03/02/08","13:10:46",24358.000,"cc",28315.205,1,0.100,22029.000,0.200,1133.000,0.300,496.000,0.500,498.000,1.000,202.000,5.000,0
"03/02/08","13:10:52",24631.000,"cc",28322.264,1,0.100,22263.000,0.200,1158.000,0.300,460.000,0.500,519.000,1.000,231.000,5.000,0
"03/02/08","13:10:58",24309.000,"cc",28309.565,1,0.100,21861.000,0.200,1189.000,0.300,517.000,0.500,521.000,1.000,221.000,5.000,0
"03/02/08","13:11:04",24291.000,"cc",28312.539,1,0.100,21943.000,0.200,1180.000,0.300,459.000,0.500,516.000,1.000,192.000,5.000,1.000
"03/02/08","13:11:10",24467.000,"cc",28372.182,1,0.100,22098.000,0.200,1159.000,0.300,521.000,0.500,493.000,1.000,196.000,5.000,0
"03/02/08","13:11:16",24554.000,"cc",28370.160,1,0.100,22216.000,0.200,1103.000,0.300,490.000,0.500,533.000,1.000,212.000,5.000,0
"03/02/08","13:11:22",24322.000,"cc",28260.531,1,0.100,21975.000,0.200,1158.000,0.300,452.000,0.500,521.000,1.000,216.000,5.000,0
"03/02/08","13:11:28",24436.000,"cc",28296.650,1,0.100,22063.000,0.200,1149.000,0.300,485.000,0.500,544.000,1.000,195.000,5.000,0
"03/02/08","13:11:34",24787.000,"cc",28326.111,1,0.100,22352.000,0.200,1217.000,0.300,481.000,0.500,494.000,1.000,243.000,5.000,0
"03/02/08","13:11:40",24754.000,"cc",28417.861,1,0.100,22353.000,0.200,1180.000,0.300,487.000,0.500,530.000,1.000,204.000,5.000,0
"03/02/08","13:11:46",24662.000,"cc",28274.535,1,0.100,22295.000,0.200,1194.000,0.300,496.000,0.500,467.000,1.000,210.000,5.000,0
"03/02/08","13:11:52",24453.000,"cc",28282.094,1,0.100,22157.000,0.200,1092.000,0.300,455.000,0.500,523.000,1.000,226.000,5.000,0
"03/02/08","13:11:58",24981.000,"cc",28264.022,1,0.100,22557.000,0.200,1195.000,0.300,501.000,0.500,512.000,1.000,216.000,5.000,0
"03/02/08","13:12:04",24578.000,"cc",28328.691,1,0.100,22167.000,0.200,1215.000,0.300,469.000,0.500,518.000,1.000,209.000,5.000,0
"03/02/08","13:12:10",24797.000,"cc",28354.783,1,0.100,22434.000,0.200,1207.000,0.300,467.000,0.500,478.000,1.000,211.000,5.000,0
"03/02/08","13:12:16",24724.000,"cc",28291.279,1,0.100,22318.000,0.200,1198.000,0.300,462.000,0.500,514.000,1.000,232.000,5.000,0
"03/02/08","13:12:22",24857.000,"cc",28294.307,1,0.100,22388.000,0.200,1218.000,0.300,495.000,0.500,541.000,1.000,215.000,5.000,0
"03/02/08","13:12:28",24412.000,"cc",28341.854,1,0.100,22004.000,0.200,1197.000,0.300,473.000,0.500,522.000,1.000,216.000,5.000,0
"03/02/08","13:12:34",25099.000,"cc",28330.662,1,0.100,22738.000,0.200,1160.000,0.300,490.000,0.500,501.000,1.000,209.000,5.000,1.000
"03/02/08","13:12:40",25004.000,"cc",28245.369,1,0.100,22588.000,0.200,1165.000,0.300,486.000,0.500,554.000,1.000,211.000,5.000,0
"03/02/08","13:12:46",24948.000,"cc",28377.670,1,0.100,22497.000,0.200,1184.000,0.300,503.000,0.500,544.000,1.000,220.000,5.000,0
"03/02/08","13:12:52",24905.000,"cc",28337.969,1,0.100,22502.000,0.200,1153.000,0.300,485.000,0.500,506.000,1.000,259.000,5.000,0
"03/02/08","13:12:58",24948.000,"cc",28347.555,1,0.100,22536.000,0.200,1188.000,0.300,457.000,0.500,556.000,1.000,211.000,5.000,0
"03/02/08","13:13:04",24896.000,"cc",28303.961,1,0.100,22497.000,0.200,1164.000,0.300,500.000,0.500,521.000,1.000,214.000,5.000,0
"03/02/08","13:13:10",24846.000,"cc",28331.268,1,0.100,22412.000,0.200,1185.000,0.300,540.000,0.500,501.000,1.000,208.000,5.000,0
"03/02/08","13:13:16",24840.000,"cc",28332.842,1,0.100,22415.000,0.200,1236.000,0.300,477.000,0.500,500.000,1.000,212.000,5.000,0
"03/02/08","13:13:22",24885.000,"cc",28295.029,1,0.100,22514.000,0.200,1188.000,0.300,477.000,0.500,492.000,1.000,214.000,5.000,0
"03/02/08","13:13:28",25119.000,"cc",28341.414,1,0.100,22716.000,0.200,1198.000,0.300,482.000,0.500,519.000,1.000,204.000,5.000,0
"03/02/08","13:13:34",25114.000,"cc",28303.434,1,0.100,22723.000,0.200,1217.000,0.300,485.000,0.500,487.000,1.000,202.000,5.000,0
"03/02/08","13:13:40",24982.000,"cc",28324.703,1,0.100,22577.000,0.200,1251.000,0.300,424.000,0.500,512.000,1.000,218.000,5.000,0
"03/02/08","13:13:46",24817.000,"cc",28259.906,1,0.100,22360.000,0.200,1262.000,0.300,497.000,0.500,509.000,1.000,189.000,5.000,0
"03/02/08","13:13:52",25006.000,"cc",28315.514,1,0.100,22576.000,0.200,1190.000,0.300,490.000,0.500,535.000,1.000,215.000,5.000,0
"03/02/08","13:13:58",25031.000,"cc",28321.891,1,0.100,22648.000,0.200,1178.000,0.300,471.000,0.500,527.000,1.000,207.000,5.000,0
"03/02/08","13:14:04",24863.000,"cc",28340.856,1,0.100,22438.000,0.200,1197.000,0.300,497.000,0.500,510.000,1.000,221.000,5.000,0
"03/02/08","13:14:10",25154.000,"cc",28276.102,1,0.100,22713.000,0.200,1225.000,0.300,455.000,0.500,534.000,1.000,227.000,5.000,0
"03/02/08","13:14:16",25005.000,"cc",28303.076,1,0.100,22672.000,0.200,1162.000,0.300,487.000,0.500,476.000,1.000,208.000,5.000,0
"03/02/08","13:14:22",25274.000,"cc",28279.981,1,0.100,22813.000,0.200,1204.000,0.300,515.000,0.500,507.000,1.000,235.000,5.000,0
"03/02/08","13:14:28",25171.000,"cc",28323.373,1,0.100,22794.000,0.200,1154.000,0.300,489.000,0.500,529.000,1.000,205.000,5.000,0
"03/02/08","13:14:34",25233.000,"cc",28362.313,1,0.100,22773.000,0.200,1164.000,0.300,517.000,0.500,513.000,1.000,266.000,5.000,0
"03/02/08","13:14:40",24821.000,"cc",28314.770,1,0.100,22505.000,0.200,1097.000,0.300,481.000,0.500,533.000,1.000,205.000,5.000,0
"03/02/08","13:14:46",25300.000,"cc",28295.791,1,0.100,22756.000,0.200,1258.000,0.300,474.000,0.500,571.000,1.000,241.000,5.000,0
"03/02/08","13:14:52",25267.000,"cc",28327.008,1,0.100,22805.000,0.200,1247.000,0.300,476.000,0.500,497.000,1.000,242.000,5.000,0
"03/02/08","13:14:58",25353.000,"cc",28362.164,1,0.100,22842.000,0.200,1274.000,0.300,485.000,0.500,525.000,1.000,227.000,5.000,0
"03/02/08","13:15:04",25200.000,"cc",28358.842,1,0.100,22785.000,0.200,1226.000,0.300,446.000,0.500,539.000,1.000,204.000,5.000,0
"03/02/08","13:15:10",24923.000,"cc",28285.527,1,0.100,22443.000,0.200,1259.000,0.300,487.000,0.500,525.000,1.000,209.000,5.000,0
"03/02/08","13:15:16",25277.000,"cc",28295.193,1,0.100,22751.000,0.200,1251.000,0.300,510.000,0.500,534.000,1.000,231.000,5.000,0
"03/02/08","13:15:22",25142.000,"cc",28292.654,1,0.100,22719.000,0.200,1191.000,0.300,461.000,0.500,550.000,1.000,220.000,5.000,1.000
"03/02/08","13:15:28",25309.000,"cc",28282.232,1,0.100,22807.000,0.200,1215.000,0.300,495.000,0.500,538.000,1.000,254.000,5.000,0
"03/02/08","13:15:34",25100.000,"cc",28344.791,1,0.100,22558.000,0.200,1239.000,0.300,537.000,0.500,536.000,1.000,230.000,5.000,0
"03/02/08","13:15:40",25065.000,"cc",28370.836,1,0.100,22645.000,0.200,1176.000,0.300,501.000,0.500,514.000,1.000,229.000,5.000,0
"03/02/08","13:15:46",25023.000,"cc",28307.906,1,0.100,22657.000,0.200,1200.000,0.300,455.000,0.500,497.000,1.000,214.000,5.000,0
"03/02/08","13:15:52",24873.000,"cc",28316.543,1,0.100,22516.000,0.200,1218.000,0.300,444.000,0.500,475.000,1.000,220.000,5.000,0
"03/02/08","13:15:58",24939.000,"cc",28276.084,1,0.100,22524.000,0.200,1192.000,0.300,482.000,0.500,507.000,1.000,234.000,5.000,0
"03/02/08","13:16:04",25112.000,"cc",28303.434,1,0.100,22639.000,0.200,1221.000,0.300,501.000,0.500,512.000,1.000,239.000,5.000,0
"03/02/08","13:16:10",24903.000,"cc",28321.045,1,0.100,22467.000,0.200,1239.000,0.300,484.000,0.500,511.000,1.000,202.000,5.000,0
"03/02/08","13:16:16",24828.000,"cc",28351.641,1,0.100,22434.000,0.200,1165.000,0.300,508.000,0.500,490.000,1.000,231.000,5.000,0
"03/02/08","13:16:22",25267.000,"cc",28335.984,1,0.100,22824.000,0.200,1239.000,0.300,477.000,0.500,517.000,1.000,210.000,5.000,0
"03/02/08","13:16:28",25084.000,"cc",28340.420,1,0.100,22699.000,0.200,1189.000,0.300,495.000,0.500,481.000,1.000,220.000,5.000,0
"03/02/08","13:16:34",25239.000,"cc",28269.988,1,0.100,22816.000,0.200,1188.000,0.300,516.000,0.500,486.000,1.000,233.000,5.000,0
"03/02/08","13:16:40",24944.000,"cc",28278.920,1,0.100,22472.000,0.200,1255.000,0.300,497.000,0.500,497.000,1.000,223.000,5.000,0
"03/02/08","13:16:46",25078.000,"cc",28348.828,1,0.100,22693.000,0.200,1223.000,0.300,470.000,0.500,515.000,1.000,177.000,5.000,0
"03/02/08","13:16:52",24914.000,"cc",28366.727,1,0.100,22488.000,0.200,1203.000,0.300,456.000,0.500,544.000,1.000,223.000,5.000,0
"03/02/08","13:16:58",24763.000,"cc",28281.238,1,0.100,22406.000,0.200,1176.000,0.300,462.000,0.500,495.000,1.000,224.000,5.000,0
"03/02/08","13:17:04",25103.000,"cc",28238.709,1,0.100,22661.000,0.200,1192.000,0.300,529.000,0.500,513.000,1.000,208.000,5.000,0
"03/02/08","13:17:10",25379.000,"cc",28329.190,1,0.100,22975.000,0.200,1200.000,0.300,488.000,0.500,516.000,1.000,200.000,5.000,0
"03/02/08","13:17:16",25141.000,"cc",28369.617,1,0.100,22722.000,0.200,1202.000,0.300,482.000,0.500,534.000,1.000,201.000,5.000,0